Regional Weather Roundup
Issued by NWS Wakefield, VA

Home | Current Version | Previous Version | Graphics & Text | Print | Product List | Glossary On
Versions: 1 2 3 4 5 6 7 8 9 10 11 12 13 14 15 16 17 18 19 20 21 22 23 24 25 26 27 28 29 30 31 32 33 34 35 36 37 38 39 40 41 42 43 44 45 46 47 48 49 50
000
ASUS41 KAKQ 251814
RWRAKQ

REGIONAL WEATHER ROUNDUP
NATIONAL WEATHER SERVICE WAKEFIELD VA
200 PM EDT MON MAY 25 2015

Note: "fair" indicates few or no clouds below 12,000 feet with no
significant weather and/or obstructions to visibility. * = Denotes
station may not report precipitation (e.g., rain,snow,etc.),
thunder or fog.

VAZ042-051-052>054-056-251900-
NORTHERN VIRGINIA

CITY           SKY/WX    TMP DP  RH WIND       PRES   REMARKS
WASH NATIONAL  PTSUNNY   84  60  44 S16G25    30.24F
DULLES         PTSUNNY   82  59  45 S17G26    30.22F
FORT BELVOIR   SUNNY     82  59  45 S10G23    30.24F
QUANTICO       MOSUNNY   82  57  42 SW12G23   30.25F
FREDERICKSBRG* SUNNY     84  59  41 S15       30.25F
STAFFORD*      MOSUNNY   82  55  39 SW12      30.29F
WARRENTON      SUNNY     83  64  51 SW8G20    30.23F
CULPEPER*      MOSUNNY   81  59  48 S10G20    30.24F
MANASSAS*      SUNNY     82  61  47 S17G23    30.23F
LEESBURG*      SUNNY     86  61  42 S17G28    30.22F
WINCHESTER     SUNNY     86  46  25 S13G22    30.21F
FRONT ROYAL*   FAIR      81  57  44 SW9       30.20F
LURAY*         FAIR      82  61  47 S10G16    30.22F
$$

VAZ048-049-060>072-079>083-251900-
CENTRAL AND SOUTH CENTRAL VIRGINIA

CITY           SKY/WX    TMP DP  RH WIND       PRES   REMARKS
RICHMOND       PTSUNNY   82  58  43 S14G22    30.28F
CHESTERFIELD*  NOT AVBL
PETERSBURG*    MOSUNNY   82  54  37 SW9G17    30.29F
HANOVER        MOSUNNY   82  57  42 S10G23    30.29F
TAPPAHANNOCK*  MOSUNNY   83  50  31 S12       30.29F
QUINTON*       MOCLDY    81  60  48 SW8G17    30.29F
CHARLOTTSVILLE MOSUNNY   81  57  43 S20G28    30.25F
GORDONSVILLE*  FAIR      81  60  48 SW17G23   30.25F
ORANGE*        MOSUNNY   82  59  44 S15G26    30.27F
LOUISA*        MOSUNNY   82  59  44 SW7G21    30.26F
BUMPASS*       FAIR      80  59  49 MISG      30.27F
FARMVILLE*     MOSUNNY   82  56  41 SW13G18   30.27F
CREWE*         FAIR      81  55  41 S9G18     30.29F
FORT PICKETT*  FAIR      81  57  44 SW12G25   30.29F
CHASE CITY*    FAIR      83  59  44 S6        30.30F
CLARKSVILLE*   FAIR      81  55  41 S9G16     30.29F
SOUTH HILL*    SUNNY     80  58  46 S12G17    30.36F
LAWRENCEVILLE* FAIR      81  59  47 S3        30.29F
EMPORIA*       SUNNY     81  57  44 SE10      30.31F
$$

VAZ088>098-251900-
SOUTHEAST VIRGINIA

CITY           SKY/WX    TMP DP  RH WIND       PRES   REMARKS
NORFOLK        SUNNY     83  54  36 SW13      30.30F
VIRGINIA BEACH MOSUNNY   82  61  48 SE16G22   30.31F
NORFOLK NAVAL  MOSUNNY   87  56  34 S9G22     30.31F
WEST POINT*    SUNNY     84  53  33 SW14G21   30.31F
SALUDA*        FAIR      81  59  47 S10G24    30.29F
NEWPORT NEWS   SUNNY     85  59  41 S16G22    30.30F
LANGLEY AFB    SUNNY     81  60  48 SW12      30.29F
FORT EUSTIS    MOSUNNY   81  62  50 VRB7      30.29F
WILLIAMSBURG*  SUNNY     88  61  40 S12       30.31F
HR EXEC AP*    FAIR      82  59  44 SW10      30.32F
FRANKLIN*      MOSUNNY   83  57  41 S8G16     30.31F
WAKEFIELD      SUNNY     82  57  42 VRB7      30.30F
$$

VAZ020-022-025-037-045-251900-
WEST CENTRAL AND SOUTHWEST VIRGINIA

CITY           SKY/WX    TMP DP  RH WIND       PRES   REMARKS
STAUNTON*      MOSUNNY   83  55  38 SW13G20   30.27F
WAYNESBORO*    MOCLDY    77  58  52 S8G22     30.27F
HOT SPRINGS VA MOSUNNY   69  56  64 S7        30.35F
LYNCHBURG      SUNNY     79  55  43 SW8G23    30.29F
DANVILLE       SUNNY     82  54  37 VRB5      30.29F
SOUTH BOSTON*  FAIR      81  53  38 MISG      30.29F
MARTINSVILLE   MOSUNNY   81  55  41 S3        30.32F
ROANOKE        PTSUNNY   81  57  43 SW13      30.29F
BLACKSBURG     MOSUNNY   73  57  55 SW6       30.34F
DUBLIN*        MOSUNNY   77  57  50 SW9       30.32F
MARION*        MOSUNNY   79  57  45 N7        30.32F
HILLSVILLE*    MOSUNNY   71  57  61 S9        30.35S
RICHLANDS*     FAIR      77  56  47 S3        30.31S
WISE*          SUNNY     79  50  36 S7        30.31S
ABINGDON*      SUNNY     81  49  33 SW5       30.29F
$$

MDZ021>025-VAZ099-100-251900-
SOUTHERN MARYLAND AND THE DELMARVA PENINSULA

CITY           SKY/WX    TMP DP  RH WIND       PRES   REMARKS
PATUXENT RIVER SUNNY     83  57  41 S15G24    30.27F
BAY BRIDGE APT   N/A    N/A N/A N/A S15G22    30.25F
LEONARDTOWN    MOSUNNY   79  55  44 S8G18     30.29F
DOVER          MOSUNNY   82  63  51 S15G26    30.23F
GEORGETOWN     MOSUNNY   82  57  42 SW20      30.28F
EASTON         MOSUNNY   82  61  47 W14G23    30.30F
CAMBRIDGE      SUNNY     81  55  41 SW9G17    30.28S
SALISBURY      MOSUNNY   80  57  45 S17G25    30.29F
OCEAN CITY     SUNNY     72  63  73 S9G17     30.31F
WALLOPS ISLAND SUNNY     76  64  66 S16       30.32F
ACCOMACK*      SUNNY     79  64  61 S13       30.31F
$$

NCZ012>017-030>032-251900-
NORTH CENTRAL AND EASTERN NORTH CAROLINA

CITY           SKY/WX    TMP DP  RH WIND       PRES   REMARKS
ROANOKE RAPIDS FAIR      81  55  41 S9G20     30.31F
RALEIGH        MOSUNNY   82  56  40 S9        30.31F
ELIZABETH CITY SUNNY     80  62  54 SE13      30.33F
AHOSKIE*       SUNNY     80  57  45 S10       30.31F
EDENTON*         N/A     81  60  49 S10       30.33F
CURRITUCK*     MOSUNNY   80  56  44 SE6       30.34F
KILL DEVIL HLS SUNNY     78  57  49 S7        30.34F
MANTEO         SUNNY     76  60  56 S12       30.36S
CAPE HATTERAS  MOSUNNY   78  57  48 S7        30.36F
TARBORO*       FAIR      83  55  37 SE9       30.32F
GOLDSBORO      MOSUNNY   82  58  43 VRB2      30.29F
WASHINGTON     SUNNY     80  58  46 SE13      30.32F
GREENVILLE     SUNNY     82  55  39 SE10      30.32F
NEW BERN       SUNNY     83  55  38 S9        30.34F
WILMINGTON     MOSUNNY   79  60  52 SE12G17   30.33F
$$

VAZ048-251900-
ELSEWHERE

CITY           SKY/WX    TMP DP  RH WIND       PRES   REMARKS
HARRISBURG PA  PTSUNNY   85  58  39 S12       30.18F
BALTIMORE      PTSUNNY   82  57  42 S15G24    30.22F
ANNAPOLIS      SUNNY     80  59  48 SE10G18   30.23F
ANDREWS AFB    MOSUNNY   81  60  49 S20G28    30.24F
PHILADELPHIA   MOSUNNY   86  54  33 SW17      30.22F
HENDERSON NC   SUNNY     80  51  36 S9G17     30.31F
GREENSBORO     MOSUNNY   78  55  44 SW10      30.31F
ROCKY MOUNT    SUNNY     83  56  39 SE10      30.31F
$$

VAZ100-251900-
MARINE

STATION/POSITION TIME  TEMP    WIND        PRES    WAVE   SWELL
                       AIR SEA DIR/SP/G            HT/PER HT/PER
                 (UTC) (F)     (DEG/KT/KT) (MB)    (FT/S) (FT/S)
BRANDYWINE LGT   1700   75 65  220/ 13/ 14 1025.6F
CAPE MAY NJ      1700   72 69  160/  9/ 11 1025.5F
LEWES DE         1700   80 63  250/ 10/ 15 1025.5F
15NM E FENWICK I 1750   63 61              1025.9F   2/ 4
OCEAN-CITY-INLET 1700   64 63  210/ 14/ 17 1026.5S
WACHAPREAGUE VA  1700   74 71  190/ 11/ 13 1027.0F
THOMAS POINT MD  1800   72 67  170/ 18/ 20 1024.5F
GOOSES REEF MD   1800   72 67  180/ 10/ 12 1025.7F   2/ 3
SOLOMONS ISLAND  1700      69                N/A
BISHOPS HEAD MD  1700   74 73  190/ 11/ 13 1026.0F
PINEY POINT MD   1700          240/ 13/ 17   N/A
CAMBRIDGE MD     1700   79 70  190/  7/ 10 1025.4F
LEWISETTA VA     1700   78 72              1025.5F
RAPPAHANNOCK LGT 1700          170/ 10/ 11 1027.5F
STINGRAY PT      1800   72 71  150/ 12/ 14 1026.0F   1/ 3
YORK RVR RNG VA  1700   75     210/ 11/ 13 1026.1F
YORKTOWN VA      1700   77 71  220/ 12/ 18 1026.1F
JAMESTOWN VA     1800   78 74  200/ 10/ 14 1024.9F
DOMINION TERM VA 1700   76     230/  5/  7 1026.9F
KIPTOPEKE VA     1700      73  170/ 10/ 11   N/A
CHES BAY BRIDGE  1700   77 70  170/ 10/ 15 1026.5F
CAPE HENRY VA    1700   73     140/ 13/ 17 1025.8F
CHESAPEAKE LGHT  1700   68     160/ 15/ 15 1028.1F
WILLOUBY STN VA  1700   77     230/  9/ 11 1027.5F
CAPE HENRY BUOY  1728      66                N/A     1/ 8
1ST LANDING BUOY 1800      69              1026.0F
CAPE CHARLES BUO 1726      67                N/A     1/ 2   2/ 9
OFFSHORE WE BUOY 1711      65                N/A     1/ 8   2/ 8
64NM E OF VA BCH 1750   67 64  160/  6/  6 1027.7F   1/ 8   2/ 8
DUCK PIER NC     1700   70 63  130/  6/  7 1027.1F
44100 DUCK FRF   1724      66                N/A     1/ 8
44056 DUCK FRF   1711      66                N/A     1/ 8
OREGON INLET NC  1700   73 73  180/ 10/ 11 1028.2F
HATTERAS NC      1700   75 74  150/  8/  9 1028.0F
DIAMOND SHLS NC  1750   74 78  150/  8/ 12 1028.3F   2/ 8   2/ 8
CAPE LOOKOUT NC  1800   74     150/  7/  8 1027.4F
$$


USA.gov is the U.S. government's official web portal to all federal, state and local government web resources and services.